Preview of NWS' New Version of Forecast
This preview is not operational and should not be used for support decisions.

Regional Weather Roundup (RWR)

Issued by Shreveport, LA (SHV)

                            
000
ASUS44 KSHV 200710
RWRSHV

WEATHER ROUNDUP FOR THE FOUR STATE AREA
NATIONAL WEATHER SERVICE SHREVEPORT LA
200 AM CDT MON MAY 20 2019

NOTE:  "FAIR" INDICATES FEW OR NO CLOUDS BELOW 12000 FEET
WITH NO SIGNIFICANT WEATHER AND/OR OBSTRUCTIONS TO VISIBILITY.

!LAZ001-LAZ014-TXZ097-200800
SHREVEPORT...MONROE...TEXARKANA RADIOS
  
CITY           SKY/WX    TMP DP  RH WIND       PRES   REMARKS
SHREVEPORT     PTCLDY    71  67  87 SE6       29.93F                  
MONROE           N/A     72  70  93 CALM      29.96R                  
NATCHITOCHES     N/A     72  71  97 SE3       29.94F                  
TEXARKANA      MOCLDY    67  65  93 SE3       29.92F                  
$$

!LAZ001-LAZ014-TXZ097-200800
OTHER LOCATIONS...
  
CITY           SKY/WX    TMP DP  RH WIND       PRES   REMARKS
DOWNTOWN SHV   CLEAR     73  70  90 SE3       29.93F                  
BOSSIER CITY     N/A     70  70 100 SE5       29.93F FOG              
RUSTON           N/A     71  69  96 S6        29.98S                  
LITTLE ROCK    MOCLDY    62  60  93 CALM      29.97S                  
EL DORADO        N/A     65  65 100 NE3       29.95R                  
JACKSON        CLOUDY    71  68  90 S6        30.00R                  
NEW ORLEANS      N/A     76  71  85 SE6       29.98S                  
HOUSTON        CLOUDY    79  77  94 S7        29.88F                  
LUFKIN         CLOUDY    70  70 100 E6        29.91F                  
TYLER          PTCLDY    73  71  93 SE6       29.89F                  
DAL FT WORTH   MOCLDY    73  60  63 E9        29.85F                  
$$


!TXZ136-TXZ165-200800
TYLER...LUFKIN RADIOS
  
CITY           SKY/WX    TMP DP  RH WIND       PRES   REMARKS
TYLER          PTCLDY    73  71  93 SE6       29.89F                  
GILMER         PTSUNNY   70  67  90 SE5       29.91S FOG              
LONGVIEW       CLEAR     72  71  97 E5        29.90F                  
LUFKIN         CLOUDY    70  70 100 E6        29.91F                  
$$

!TXZ136-TXZ165-200800
OTHER LOCATIONS...
  
CITY           SKY/WX    TMP DP  RH WIND       PRES   REMARKS
NACOGDOCHES    CLOUDY    72  70  93 SE7       29.92F                  
BEAUMONT       CLOUDY    79  74  84 E8        29.91S                  
HOUSTON        CLOUDY    79  77  94 S7        29.88F                  
COLLEGE STN    MOCLDY    76  74  93 SE7       29.87F                  
AUSTIN         CLOUDY    78  74  87 S8        29.86F                  
DAL FT WORTH   MOCLDY    73  60  63 E9        29.85F                  
TEXARKANA      MOCLDY    67  65  93 SE3       29.92F                  
SHREVEPORT     PTCLDY    71  67  87 SE6       29.93F                  
FORT POLK        N/A     72  70  94 SE5       29.92F                  
LAKE CHARLES   CLOUDY    76  73  91 NE3       29.95S                  
$$